Location: Dalton
(34.7700°N, 84.9700°W)
Time: 09:41:00
(UTC-04:00)

Vanguard 1 Rocket - Visible Passes

Search period start: 19 July 2018 00:00
Search period end: 29 July 2018 00:00
Orbit: 652 x 4225 km, 34.3° (Epoch: 18 July)

Date Brightness Start Highest point End Pass type
(mag) Time Alt. Az. Time Alt. Az. Time Alt. Az.
19 Jul 11.7 05:24:18 10° S 05:38:11 17° SE 05:50:22 10° ESE visible
21 Jul 11.6 05:22:55 10° S 05:40:44 24° SE 05:56:04 10° E visible
22 Jul 11.7 04:16:56 10° SSE 04:26:52 13° SE 04:36:24 10° ESE visible
23 Jul 11.5 05:22:47 10° S 05:43:08 31° SE 06:00:37 10° E visible
24 Jul 11.6 04:14:07 10° S 04:29:14 19° SE 04:43:46 10° E visible
25 Jul 11.3 05:23:25 10° SSW 05:45:24 38° SE 06:04:33 10° E visible
26 Jul 11.4 04:13:59 11° S 04:31:25 26° SE 04:49:00 10° E visible
27 Jul 11.5 03:07:33 10° SSE 03:17:56 14° SE 03:28:43 10° ESE visible
27 Jul 11.2 05:24:34 10° SSW 05:47:36 45° SE 06:08:06 10° ENE visible
28 Jul 11.2 04:17:03 16° S 04:33:28 32° SE 04:53:16 10° E visible
